COSMOS 416

Satellite information

Favourite Embed

Satellite Type and Status

PAYLOADIN ORBIT

Key statistics

Satellite COSMOS 416 at a glance.

Uptime

19785

Days in orbit

Revolutions

≈ 12.6

Per day

Orbit

LEO

Low Earth Orbit

Inclination

74.0

Latest

Satellite identification and parameters

Extended collection of information and parameters for COSMOS 416.

Object identification

Identified? True

Debris? False

Object name: COSMOS 416

International designator: 1971-041F

Object number (NORAD): 5215

Object ID (CCSDS): 5215

Country: COMMONWEALTH OF INDEPENDENT STATES (CIS)

Current information (Y/N): Y

RCS size: MEDIUM

Orbital parameters

Period: 114.462 minutes

Inclination: 74.0161 deg

SMA: 7809.082 km

Apoapsis: 1491.454 km

Periapsis: 1370.44 km

RAAN: 22.1442 deg

Eccentricy: 0.0077483

Argument of periapsis: 200.2896 deg

Mean anomaly: 227.507 deg

Mean motion: 12.58064126 rev/day

Mean motion (dot): 0.00000002 rev/day2

B* drag term: 0.00010967 1/REarth

Two-line elements (TLE)

Creation date: July 6, 2025, 6:05 p.m.

Reference frame: TEME

Reference center: EARTH

Epoch: July 6, 2025, 3:32 p.m. UTC

TLE line 0: 0 COSMOS 416

TLE line 1: 1 05215U 71041F 25187.64772946 .00000002 00000-0 10967-3 0 9992

TLE line 2: 2 05215 74.0161 22.1442 0077483 200.2896 227.5070 12.58064126487338

Live tracking on map

Real-time ground track for satellite COSMOS 416.

In-orbit conjunctions

There are no conjunctions computed for COSMOS 416, at the moment. Check back to stay up to date, as we update our databases every day.

Go to all conjunctions

Associated space launch

Military communications satellites

COSMOS 416 was lifted into orbit during the mission ‘Kosmos-3M | Strela-1M 9-16’, on board a Kosmos-3M space rocket.

The launch took place on May 7, 1971, 2:20 p.m. from 132/1 (132L).

For more information about the launch, click the button.

Launch to space Kosmos-3M | Strela-1M 9-16
Kosmos-3M | Strela-1M 9-16

Agency: N/A

Status: Launch Successful

Launch date: May 7, 1971, 2:20 p.m. UTC

Rocket: Kosmos-3M

Launch pad: 132/1 (132L)

Location: Plesetsk Cosmodrome, Russian Federation

...

Latest news about this satellite

There are no fresh news available about this satellite. Check back as we update our databases every day.


Newsletter sign-up

Weekly statistics, charts and insights to help you stay on top of the space industry.